Location: Conway
(43.9790°N, 71.1210°W)
Time: 15:38:13
(UTC-04:00)

Envisat - Visible Passes

Search period start: 20 March 2019 00:00
Search period end: 30 March 2019 00:00
Orbit: 764 x 766 km, 98.2° (Epoch: 19 March)

Date Brightness Start Highest point End Pass type
(mag) Time Alt. Az. Time Alt. Az. Time Alt. Az.
20 Mar 6.1 20:57:01 10° WSW 20:58:52 12° W 21:00:43 10° WNW visible
21 Mar 5.3 20:17:29 10° SSW 20:21:42 26° W 20:25:57 10° NW visible
22 Mar 3.8 19:39:46 10° S 19:44:45 56° W 19:49:46 10° NNW visible
23 Mar 5.9 20:44:36 10° SW 20:47:30 15° W 20:50:25 10° NW visible
24 Mar 4.9 20:05:53 10° SSW 20:10:24 32° W 20:14:58 10° NNW visible
25 Mar 3.4 19:28:27 10° S 19:33:31 71° WSW 19:38:36 10° NNW visible
26 Mar 5.7 20:32:35 10° SW 20:36:10 19° W 20:39:45 10° NW visible
27 Mar 4.5 19:54:21 10° SSW 19:59:07 41° W 20:03:55 10° NNW visible
28 Mar 6.2 21:00:56 10° W 21:02:01 11° W 21:03:07 10° WNW visible
29 Mar 5.4 20:20:47 10° SSW 20:24:51 24° W 20:28:55 10° NW visible
